Location: Clarks Summit,Pa.
(41.5000°N, 75.6000°W)
Time: 02:18:30
(UTC-05:00)

Envisat - Pass Details

Date: 09 December 2021
Orbit: 764 x 766 km, 98.2° (Epoch: 18 January)

Event Time Altitude Azimuth Distance (km) Brightness Sun altitude
Rises 17:01:41 0° 195° (SSW) 3,218 6.9 -5.7°
Reaches altitude 10° 17:04:17 10° 207° (SSW) 2,296 6.4 -6.1°
Maximum altitude 17:08:35 28° 265° (W) 1,416 5.3 -6.8°
Drops below altitude 10° 17:12:56 10° 324° (NW) 2,311 5.7 -7.6°
Sets 17:15:34 0° 336° (NNW) 3,242 6.3 -8.0°
